When you browse on this site, cookies collect data to enhance your experience and personalize the content and advertising you see.
Visit our Privacy Policy to learn more. By continuing to use the site, you agree to this use of cookies and data.
  • Em Portugal
  • Lista de países
  • Para 7 dias
  • Temperatura da água
  • Mapa do tempo
  • Widgets de tempo
  • user-avatar
    Iniciar Sessão

    Previsão horária em Evlakh

    Hoje, 22 Setembro, Domingo

    Tempo Temperatura Precipitação Vento Pressão Humidade
    00:00 +19°C° 0 mm 12 m/s 760 mmHg 37%
    01:00 +19°C° 0.1 mm 11 m/s 760 mmHg 38%
    02:00 +18°C° 0.1 mm 11 m/s 761 mmHg 42%
    03:00 +18°C° 0 mm 10 m/s 761 mmHg 40%
    04:00 +18°C° 0.1 mm 9 m/s 762 mmHg 41%
    05:00 +18°C° 0.1 mm 7 m/s 763 mmHg 43%
    06:00 +17°C° 0.1 mm 6 m/s 763 mmHg 44%
    07:00 +19°C° 0 mm 6 m/s 764 mmHg 41%
    08:00 +20°C° 0 mm 6 m/s 764 mmHg 38%
    09:00 +21°C° 0 mm 6 m/s 765 mmHg 34%
    10:00 +22°C° 0 mm 5 m/s 765 mmHg 31%
    11:00 +23°C° 0 mm 5 m/s 765 mmHg 27%
    12:00 +25°C° 0 mm 5 m/s 765 mmHg 23%
    13:00 +26°C° 0 mm 5 m/s 764 mmHg 22%
    14:00 +26°C° 0 mm 4 m/s 764 mmHg 22%
    15:00 +26°C° 0 mm 4 m/s 763 mmHg 21%
    16:00 +25°C° 0 mm 3 m/s 763 mmHg 23%
    17:00 +23°C° 0 mm 2 m/s 763 mmHg 25%
    18:00 +22°C° 0 mm 1 m/s 764 mmHg 28%
    19:00 +20°C° 0 mm 2 m/s 764 mmHg 36%
    20:00 +19°C° 0 mm 4 m/s 764 mmHg 44%
    21:00 +17°C° 0 mm 5 m/s 765 mmHg 53%
    22:00 +17°C° 0 mm 4 m/s 764 mmHg 59%
    23:00 +16°C° 0 mm 3 m/s 764 mmHg 65%

    Amanhã, 23 Setembro, Segunda-feira

    Tempo Temperatura Precipitação Vento Pressão Humidade
    00:00 +16°C° 0 mm 3 m/s 764 mmHg 72%
    01:00 +15°C° 0 mm 2 m/s 764 mmHg 73%
    02:00 +15°C° 0 mm 1 m/s 764 mmHg 74%
    03:00 +14°C° 0 mm 1 m/s 763 mmHg 75%
    04:00 +14°C° 0 mm 1 m/s 763 mmHg 76%
    05:00 +14°C° 0 mm 1 m/s 763 mmHg 76%
    06:00 +14°C° 0 mm 1 m/s 763 mmHg 77%
    07:00 +16°C° 0 mm 1 m/s 763 mmHg 67%
    08:00 +19°C° 0 mm 1 m/s 762 mmHg 57%
    09:00 +21°C° 0 mm 1 m/s 762 mmHg 47%
    10:00 +22°C° 0 mm 1 m/s 762 mmHg 42%
    11:00 +24°C° 0 mm 1 m/s 761 mmHg 36%
    12:00 +25°C° 0 mm 2 m/s 761 mmHg 31%
    13:00 +26°C° 0 mm 1 m/s 760 mmHg 30%
    14:00 +26°C° 0 mm 1 m/s 760 mmHg 28%
    15:00 +27°C° 0 mm 1 m/s 759 mmHg 26%
    16:00 +25°C° 0 mm 1 m/s 759 mmHg 29%
    17:00 +24°C° 0 mm 1 m/s 759 mmHg 32%
    18:00 +21°C° 0 mm 0 m/s 760 mmHg 35%
    19:00 +22°C° 0 mm 1 m/s 760 mmHg 37%
    20:00 +22°C° 0 mm 1 m/s 761 mmHg 40%
    21:00 +20°C° 0 mm 2 m/s 761 mmHg 42%
    22:00 +19°C° 0 mm 2 m/s 761 mmHg 55%
    23:00 +19°C° 0 mm 2 m/s 761 mmHg 67%

    Depois de amanhã, 24 Setembro, Terça-feira

    Tempo Temperatura Precipitação Vento Pressão Humidade
    00:00 +18°C° 0 mm 3 m/s 761 mmHg 79%
    01:00 +18°C° 0 mm 2 m/s 761 mmHg 82%
    02:00 +18°C° 0 mm 2 m/s 761 mmHg 84%
    03:00 +18°C° 0 mm 1 m/s 761 mmHg 86%
    04:00 +18°C° 0 mm 1 m/s 761 mmHg 85%
    05:00 +18°C° 0 mm 1 m/s 761 mmHg 84%
    06:00 +16°C° 0 mm 0 m/s 762 mmHg 83%
    07:00 +18°C° 0.1 mm 0 m/s 762 mmHg 76%
    08:00 +21°C° 0.1 mm 1 m/s 762 mmHg 69%
    09:00 +23°C° 0.1 mm 1 m/s 762 mmHg 63%
    10:00 +24°C° 0.1 mm 1 m/s 761 mmHg 60%
    11:00 +25°C° 0.1 mm 2 m/s 761 mmHg 57%
    12:00 +26°C° 0.1 mm 2 m/s 760 mmHg 55%
    13:00 +26°C° 0 mm 2 m/s 760 mmHg 52%
    14:00 +27°C° 0 mm 2 m/s 760 mmHg 49%
    15:00 +27°C° 0 mm 2 m/s 759 mmHg 46%
    16:00 +26°C° 0 mm 2 m/s 760 mmHg 48%
    17:00 +26°C° 0 mm 2 m/s 760 mmHg 51%
    18:00 +25°C° 0 mm 2 m/s 760 mmHg 53%
    19:00 +24°C° 0 mm 2 m/s 760 mmHg 57%
    20:00 +23°C° 0 mm 2 m/s 760 mmHg 60%
    21:00 +21°C° 0 mm 3 m/s 761 mmHg 64%
    22:00 +21°C° 0 mm 3 m/s 760 mmHg 69%
    23:00 +20°C° 0 mm 3 m/s 760 mmHg 74%

    25 Setembro, Quarta-feira

    Tempo Temperatura Precipitação Vento Pressão Humidade
    00:00 +20°C° 0 mm 3 m/s 760 mmHg 78%
    01:00 +19°C° 0 mm 2 m/s 760 mmHg 81%
    02:00 +19°C° 0 mm 2 m/s 760 mmHg 84%
    03:00 +19°C° 0 mm 1 m/s 759 mmHg 86%
    04:00 +19°C° 0 mm 1 m/s 759 mmHg 87%
    05:00 +17°C° 0 mm 0 m/s 759 mmHg 88%
    06:00 +16°C° 0 mm 0 m/s 759 mmHg 89%
    07:00 +18°C° 0 mm 0 m/s 759 mmHg 80%
    08:00 +22°C° 0 mm 1 m/s 759 mmHg 70%
    09:00 +24°C° 0 mm 1 m/s 759 mmHg 61%
    10:00 +26°C° 0 mm 1 m/s 758 mmHg 55%
    11:00 +27°C° 0 mm 2 m/s 758 mmHg 50%
    12:00 +28°C° 0 mm 2 m/s 758 mmHg 44%
    13:00 +29°C° 0 mm 2 m/s 757 mmHg 41%
    14:00 +30°C° 0 mm 1 m/s 757 mmHg 37%
    15:00 +31°C° 0 mm 1 m/s 757 mmHg 34%
    16:00 +29°C° 0 mm 1 m/s 757 mmHg 37%
    17:00 +28°C° 0 mm 1 m/s 757 mmHg 40%
    18:00 +27°C° 0 mm 2 m/s 757 mmHg 43%
    19:00 +26°C° 0 mm 3 m/s 758 mmHg 50%
    20:00 +25°C° 0 mm 5 m/s 758 mmHg 57%
    21:00 +23°C° 0 mm 7 m/s 759 mmHg 64%
    22:00 +22°C° 0 mm 6 m/s 759 mmHg 68%
    23:00 +21°C° 0 mm 6 m/s 759 mmHg 72%

    26 Setembro, Quinta-feira

    Tempo Temperatura Precipitação Vento Pressão Humidade
    00:00 +21°C° 0 mm 5 m/s 759 mmHg 76%
    01:00 +20°C° 0 mm 4 m/s 759 mmHg 77%
    02:00 +20°C° 0 mm 3 m/s 759 mmHg 78%
    03:00 +20°C° 0 mm 2 m/s 759 mmHg 79%
    04:00 +19°C° 0 mm 2 m/s 759 mmHg 80%
    05:00 +20°C° 0 mm 1 m/s 759 mmHg 82%
    06:00 +20°C° 0 mm 1 m/s 760 mmHg 83%
    07:00 +21°C° 0 mm 1 m/s 760 mmHg 77%
    08:00 +23°C° 0 mm 1 m/s 760 mmHg 70%
    09:00 +24°C° 0 mm 2 m/s 760 mmHg 63%
    10:00 +26°C° 0 mm 2 m/s 760 mmHg 58%
    11:00 +27°C° 0 mm 1 m/s 759 mmHg 53%
    12:00 +28°C° 0 mm 1 m/s 759 mmHg 47%
    13:00 +29°C° 0 mm 1 m/s 759 mmHg 45%
    14:00 +30°C° 0 mm 1 m/s 758 mmHg 42%
    15:00 +30°C° 0 mm 1 m/s 757 mmHg 40%
    16:00 +29°C° 0 mm 1 m/s 758 mmHg 43%
    17:00 +28°C° 0 mm 1 m/s 758 mmHg 47%
    18:00 +27°C° 0 mm 1 m/s 758 mmHg 50%
    19:00 +26°C° 0 mm 2 m/s 758 mmHg 54%
    20:00 +25°C° 0 mm 3 m/s 759 mmHg 59%
    21:00 +23°C° 0 mm 5 m/s 759 mmHg 63%
    22:00 +22°C° 0 mm 4 m/s 759 mmHg 68%
    23:00 +22°C° 0 mm 3 m/s 759 mmHg 73%

    27 Setembro, Sexta-feira

    Tempo Temperatura Precipitação Vento Pressão Humidade
    00:00 +21°C° 0 mm 3 m/s 759 mmHg 78%
    01:00 +20°C° 0 mm 2 m/s 759 mmHg 80%
    02:00 +20°C° 0 mm 2 m/s 759 mmHg 81%
    03:00 +21°C° 0 mm 1 m/s 759 mmHg 83%
    04:00 +20°C° 0 mm 1 m/s 759 mmHg 84%
    05:00 +20°C° 0 mm 1 m/s 758 mmHg 85%
    06:00 +18°C° 0 mm 0 m/s 758 mmHg 86%
    07:00 +20°C° 0 mm 0 m/s 758 mmHg 78%
    08:00 +23°C° 0 mm 1 m/s 758 mmHg 70%
    09:00 +25°C° 0 mm 1 m/s 757 mmHg 63%
    10:00 +26°C° 0 mm 1 m/s 757 mmHg 57%
    11:00 +28°C° 0 mm 2 m/s 756 mmHg 52%
    12:00 +29°C° 0 mm 3 m/s 756 mmHg 46%
    13:00 +30°C° 0 mm 3 m/s 755 mmHg 43%
    14:00 +31°C° 0 mm 3 m/s 755 mmHg 39%
    15:00 +33°C° 0 mm 4 m/s 754 mmHg 35%
    16:00 +31°C° 0 mm 3 m/s 754 mmHg 38%
    17:00 +29°C° 0 mm 2 m/s 754 mmHg 40%
    18:00 +28°C° 0 mm 2 m/s 754 mmHg 43%
    19:00 +27°C° 0 mm 1 m/s 754 mmHg 45%
    20:00 +27°C° 0 mm 1 m/s 754 mmHg 48%
    21:00 +26°C° 0 mm 1 m/s 755 mmHg 50%
    22:00 +26°C° 0 mm 1 m/s 755 mmHg 50%
    23:00 +25°C° 0 mm 2 m/s 755 mmHg 51%
    Mostrar mais